Weather History for Jefferson, NC

Change the Weather History Date:

Monday, February 4, 2013

  Actual Average Record
Temperature  
Mean Temperature 30 °F -  
Max Temperature 41 °F 44 °F 65 °F (1992)
Min Temperature 20 °F 21 °F -13 °F (1970)
Degree Days  
Heating Degree Days 34    
Moisture  
Dew Point 16 °F    
Average Humidity 54    
Maximum Humidity 72    
Minimum Humidity 40    
Precipitation  
Precipitation 0.00 in - - ()
Sea Level Pressure  
Sea Level Pressure 29.94 in    
Wind  
Wind Speed 9 mph (SSW)    
Max Wind Speed 25 mph    
Max Gust Speed 44 mph    
Visibility 10 miles    
Events      
Averages and records for this station are not official NWS values.
T = Trace of Precipitation, MM = Missing Value Source: NWS Daily Summary

Daily Weather History Graph

Daily Weather History Graph

Search for Another Location

Airport:

Trip Planner

Search our weather history database for the weather conditions in past years. The results will help you decide how hot, cold, wet, or windy it might be!

Date:

Astronomy

Feb. 04, 2013 Rise Set
Actual Time 7:24 AM EST 5:55 PM EST
Civil Twilight 6:57 AM EST 6:22 PM EST
Nautical Twilight 6:26 AM EST 6:52 PM EST
Astronomical Twilight 5:56 AM EST 7:23 PM EST
Moon 1:56 AM EST (2/4) 12:20 PM EST (2/4)
Length of Visible Light 11h 24m
Length of Day
10h 30m
Last Quarter, 37% of the Moon is Illuminated
Feb 4
Last Quarter
Feb 10
New
Feb 17
First Quarter
Feb 25
Full
Mar 4
Last Quarter

Hourly Weather History & Observations

Time (EST) Temp. Windchill Dew Point Humidity Pressure Visibility Wind Dir Wind Speed Gust Speed Precip Events Conditions
12:15 AM 24.4 °F 8.8 °F 14.4 °F 66% - 10.0 mi NW 24.2 mph 43.7 mph N/A   Clear
12:35 AM 23.7 °F 7.5 °F 14.5 °F 68% - 10.0 mi WNW 25.3 mph 36.8 mph N/A   Clear
12:55 AM 23.9 °F 10.3 °F 13.5 °F 64% - 10.0 mi NW 17.3 mph 39.1 mph N/A   Clear
1:15 AM 24.6 °F 20.3 °F 12.4 °F 60% - 10.0 mi NW 3.5 mph 32.2 mph N/A   Clear
1:35 AM 24.6 °F 12.7 °F 11.3 °F 57% - 10.0 mi NW 13.8 mph 25.3 mph N/A   Clear
1:55 AM 25.7 °F 18.0 °F 9.9 °F 51% - 10.0 mi NNW 6.9 mph 18.4 mph N/A   Clear
2:15 AM 25.7 °F 14.0 °F 9.9 °F 51% - 10.0 mi NNW 13.8 mph 28.8 mph N/A   Clear
2:55 AM 24.1 °F 16.0 °F 11.8 °F 60% - 10.0 mi NNW 6.9 mph 25.3 mph N/A   Clear
3:15 AM 22.5 °F 12.4 °F 13.1 °F 67% - 10.0 mi East 9.2 mph - N/A   Clear
3:35 AM 21.4 °F 13.8 °F 13.1 °F 70% - 10.0 mi ESE 5.8 mph - N/A   Clear
3:55 AM 21.9 °F 14.5 °F 13.1 °F 69% - 10.0 mi SE 5.8 mph - N/A   Clear
4:15 AM 20.8 °F 12.1 °F 13.1 °F 72% - 10.0 mi ESE 6.9 mph - N/A   Clear
6:15 AM 23.9 °F - 11.3 °F 59% - 10.0 mi Calm Calm - N/A   Clear
6:35 AM 23.7 °F 16.6 °F 10.8 °F 58% - 10.0 mi WSW 5.8 mph - N/A   Clear
7:15 AM 23.0 °F 11.7 °F 11.3 °F 61% - 10.0 mi West 11.5 mph 16.1 mph N/A   Clear
7:35 AM 22.6 °F 10.1 °F 12.7 °F 66% - 10.0 mi West 13.8 mph - N/A   Clear
8:15 AM 23.9 °F 11.7 °F 12.6 °F 62% - 10.0 mi West 13.8 mph 20.7 mph N/A   Clear
9:15 AM 26.1 °F 14.0 °F 10.9 °F 53% 30.00 in 10.0 mi WNW 15.0 mph 19.6 mph N/A   Unknown
9:35 AM 27.3 °F 19.9 °F 11.8 °F 52% 30.00 in 10.0 mi WNW 6.9 mph - N/A   Scattered Clouds
9:55 AM 28.2 °F 23.1 °F 11.7 °F 50% 30.00 in 10.0 mi West 4.6 mph 17.3 mph N/A   Mostly Cloudy
10:15 AM 28.2 °F - 12.4 °F 52% 30.00 in 10.0 mi Calm Calm - N/A   Scattered Clouds
10:35 AM 28.6 °F - 12.4 °F 51% 30.00 in 10.0 mi Calm Calm - N/A   Clear
10:55 AM 28.2 °F - 13.8 °F 55% 30.00 in 10.0 mi Calm Calm - N/A   Clear
11:15 AM 30.0 °F - 13.5 °F 50% 30.00 in 10.0 mi Calm Calm - N/A   Clear
11:35 AM 31.1 °F - 13.8 °F 49% 30.00 in 10.0 mi Calm Calm - N/A   Scattered Clouds
12:15 PM 32.2 °F - 15.1 °F 49% 29.98 in 10.0 mi Calm Calm - N/A   Mostly Cloudy
12:35 PM 33.8 °F - 16.2 °F 49% 29.98 in 10.0 mi Calm Calm - N/A   Scattered Clouds
12:55 PM 35.6 °F - 16.9 °F 47% 29.97 in 10.0 mi Calm Calm - N/A   Clear
1:15 PM 38.5 °F - 17.8 °F 43% 29.96 in 10.0 mi Calm Calm - N/A   Clear
1:35 PM 40.1 °F - 18.7 °F 42% 29.94 in 10.0 mi Calm Calm - N/A   Clear
1:55 PM 41.0 °F - 18.1 °F 40% 29.94 in 10.0 mi Calm Calm - N/A   Scattered Clouds
2:15 PM 41.7 °F 39.8 °F 18.7 °F 40% 29.93 in 10.0 mi South 3.5 mph - N/A   Mostly Cloudy
2:35 PM 40.1 °F 36.9 °F 19.9 °F 44% 29.93 in 10.0 mi SSE 4.6 mph - N/A   Overcast
2:55 PM 41.0 °F 38.0 °F 19.6 °F 42% 29.93 in 10.0 mi SE 4.6 mph - N/A   Overcast
3:15 PM 39.9 °F 35.8 °F 20.3 °F 45% 29.93 in 10.0 mi SE 5.8 mph - N/A   Mostly Cloudy
3:55 PM 40.1 °F 36.9 °F 18.3 °F 42% 29.92 in 10.0 mi SE 4.6 mph - N/A   Mostly Cloudy
4:15 PM 39.9 °F 35.8 °F 18.7 °F 42% 29.92 in 10.0 mi SE 5.8 mph - N/A   Mostly Cloudy
4:35 PM 39.4 °F 35.2 °F 19.6 °F 45% 29.92 in 10.0 mi SE 5.8 mph - N/A   Mostly Cloudy
4:55 PM 39.0 °F 35.7 °F 19.8 °F 46% 29.92 in 10.0 mi SE 4.6 mph - N/A   Scattered Clouds
5:15 PM 38.3 °F 34.8 °F 19.8 °F 47% 29.91 in 10.0 mi SE 4.6 mph - N/A   Clear
5:35 PM 38.8 °F 36.5 °F 18.5 °F 44% 29.91 in 10.0 mi SE 3.5 mph - N/A   Scattered Clouds
6:15 PM 38.1 °F 35.7 °F 19.4 °F 47% 29.92 in 10.0 mi SSW 3.5 mph - N/A   Clear
6:35 PM 37.8 °F - 19.4 °F 48% 29.92 in 10.0 mi Calm Calm - N/A   Clear
6:55 PM 37.4 °F - 19.4 °F 48% 29.92 in 10.0 mi Calm Calm - N/A   Clear
7:15 PM 37.4 °F 32.8 °F 19.2 °F 48% 29.92 in 10.0 mi SW 5.8 mph - N/A   Clear
7:55 PM 36.5 °F 33.9 °F 20.8 °F 53% 29.92 in 10.0 mi South 3.5 mph - N/A   Mostly Cloudy
8:15 PM 35.4 °F 31.5 °F 21.2 °F 56% 29.92 in 10.0 mi SSE 4.6 mph - N/A   Mostly Cloudy
8:35 PM 35.4 °F 32.6 °F 21.2 °F 56% 29.92 in 10.0 mi South 3.5 mph - N/A   Mostly Cloudy
8:55 PM 35.6 °F 32.8 °F 20.1 °F 53% 29.92 in 10.0 mi South 3.5 mph - N/A   Mostly Cloudy
9:15 PM 35.1 °F 32.2 °F 20.3 °F 55% 29.92 in 10.0 mi South 3.5 mph - N/A   Scattered Clouds
9:35 PM 34.3 °F - 19.9 °F 56% 29.92 in 10.0 mi Calm Calm - N/A   Scattered Clouds
9:55 PM 34.2 °F - 19.8 °F 56% 29.92 in 10.0 mi Calm Calm - N/A   Scattered Clouds
10:15 PM 33.4 °F - 19.4 °F 56% 29.92 in 10.0 mi Calm Calm - N/A   Scattered Clouds
10:35 PM 32.9 °F - 19.6 °F 58% 29.91 in 10.0 mi Calm Calm - N/A   Mostly Cloudy
10:55 PM 32.4 °F - 20.3 °F 61% 29.91 in 10.0 mi Calm Calm - N/A   Overcast
11:15 PM 32.9 °F - 20.5 °F 60% 29.90 in 10.0 mi Calm Calm - N/A   Overcast
11:35 PM 32.7 °F 29.6 °F 20.3 °F 60% 29.90 in 10.0 mi SSE 3.5 mph - N/A   Overcast
11:55 PM 33.3 °F 30.2 °F 20.1 °F 59% 29.89 in 10.0 mi WSW 3.5 mph - N/A   Overcast